{"data":{"norad_id":57511,"intl_designator":"2023-113S","name":"STARLINK-30147","alt_names":[],"object_type":"PAYLOAD","status":"ACTIVE","operator":null,"country":"US","launch_date":"2023-08-07","launch_site_code":"AFETR","launch_vehicle":null,"mission":null,"orbit_class":"UNKNOWN","rcs_meters":null,"size_class":null,"mass_kg":null,"dimensions":null,"purposes":["comms"],"wikipedia_slug":null,"has_3d_model":false,"image_url":null,"decayed_at":null,"tle_current":{"epoch":"2026-09-20T07:38:03.090912Z","epoch_age_seconds":143694,"freshness":"FRESH","line1":"1 57511U 23113S   26263.31809133 -.00000029  00000+0  84766-5 0  9993","line2":"2 57511  43.0062 356.6958 0001987 270.6789  89.3835 15.27574474173443","mean_motion":15.27574474,"eccentricity":0.0001987,"inclination_deg":43.0062,"raan_deg":356.6958,"arg_perigee_deg":270.6789,"mean_anomaly_deg":89.3835,"bstar":8.4766e-6,"rev_number":17344,"period_min":94.267089723574,"perigee_km":481.70232195635,"apogee_km":484.42896388665,"semimajor_km":6861.2026429215,"source":"CELESTRAK","updated_at":"2026-09-21T09:00:33.635338Z"}}}